Theta_e
305 305 305 305 305 305 306 305 305 305 305 304 303 303 303 302 301 297 297 297 297 298 299 301 302 301 301 301 303 303 304 304 302 303 303 303 307 309 310 311 308 303 302 302 302 304 304 303 304 304 305 305 306 308 309 311 315 321 327 330 330 331 331 331 332 330 330 327 322 321 322 322 318 315 314 316 318 318 318 317 316 317 316 316 314 313 312 312
305 305 305 305 305 305 306 305 304 305 305 304 303 301 302 303 302 298 298 299 298 297 298 300 301 301 301 302 303 303 304 304 302 303 302 302 307 308 309 310 306 302 302 302 302 304 304 303 304 303 304 305 305 308 310 311 314 322 327 329 330 331 329 329 331 329 328 326 322 321 322 321 319 317 316 319 321 320 320 318 316 315 314 314 314 313 311 310
305 305 305 305 305 305 305 305 304 305 304 304 302 301 303 304 304 303 304 305 303 298 297 298 300 301 301 301 303 303 304 304 302 302 301 301 305 307 308 308 304 303 302 302 303 303 304 303 302 303 305 305 305 307 311 313 316 320 323 330 329 327 327 326 328 328 326 324 322 322 320 319 318 317 318 321 321 320 319 317 317 316 314 314 313 311 310 308
305 305 305 305 305 305 305 305 305 305 304 303 300 300 302 304 305 305 305 307 307 301 297 297 298 301 301 301 303 304 304 304 302 302 301 302 304 305 306 306 304 303 302 302 302 303 303 303 302 303 305 305 305 308 311 314 318 318 320 326 322 321 325 323 324 325 323 323 321 320 319 318 316 316 320 321 322 319 314 314 317 316 314 312 311 310 309 308
305 305 305 305 305 305 305 305 305 305 304 302 299 298 300 301 303 303 303 307 307 299 297 297 298 300 301 301 302 304 305 304 302 301 302 302 302 303 304 305 304 303 302 302 303 304 303 303 303 304 305 306 307 310 311 312 316 318 317 318 316 318 323 320 321 323 321 321 320 320 319 317 315 314 316 318 321 316 310 312 315 314 312 311 310 309 309 308
305 305 304 305 305 305 305 304 304 305 303 301 299 298 300 300 300 301 301 305 304 298 297 297 297 300 301 301 302 303 304 302 301 302 302 302 302 304 305 305 304 302 303 303 304 305 304 304 303 303 305 306 309 311 312 312 315 319 317 315 316 318 320 319 320 321 320 321 321 318 316 314 313 312 309 310 311 308 306 311 313 311 310 310 310 310 308 307
304 304 304 304 304 305 305 304 304 302 301 299 299 300 300 299 300 301 301 302 302 299 298 298 298 301 301 302 303 303 303 302 301 302 302 302 303 304 305 305 303 302 303 304 306 306 305 304 303 303 305 306 310 313 314 314 316 320 318 315 316 317 318 318 318 318 318 319 317 315 314 313 314 312 308 307 306 305 307 309 309 308 309 309 309 309 307 306
304 304 304 304 304 304 304 304 303 300 299 299 299 301 300 300 300 301 301 300 300 299 299 299 299 301 301 303 304 303 302 302 301 301 302 302 303 304 306 305 303 302 303 305 306 306 305 305 304 303 306 307 309 314 315 316 317 317 317 315 315 315 315 315 315 315 315 315 314 313 313 311 311 309 307 306 305 305 306 307 307 307 307 307 308 307 306 305
304 304 304 304 304 304 304 304 302 299 298 299 300 300 300 300 300 300 301 300 299 299 299 300 300 301 302 303 303 302 302 302 301 301 302 303 303 305 305 305 304 303 303 305 305 307 306 305 304 303 306 308 310 314 314 317 318 315 315 315 314 314 314 314 314 314 313 313 313 312 310 309 309 310 308 305 305 305 305 306 306 306 305 305 305 305 305 304
304 304 303 304 304 304 304 303 300 298 298 299 300 300 300 301 301 301 301 301 300 300 300 300 301 301 302 303 303 302 302 301 301 302 302 303 304 304 305 305 304 303 303 305 306 308 307 306 306 305 308 311 311 313 313 316 316 313 315 315 314 314 314 314 313 314 313 313 313 312 312 311 310 312 311 305 304 306 305 305 305 304 304 303 303 304 304 304
304 304 303 304 303 304 304 302 299 298 299 300 300 300 301 302 302 301 301 301 301 301 301 301 301 302 302 303 303 303 302 301 301 302 302 303 304 304 304 304 305 304 303 304 305 306 307 307 307 305 308 312 313 313 313 314 314 314 315 315 315 315 314 314 314 315 315 314 314 313 314 314 312 312 310 305 304 306 305 305 305 304 304 303 302 303 304 303
304 304 303 304 303 304 304 301 298 299 299 300 301 301 302 302 302 301 301 301 300 301 302 301 302 302 303 303 303 303 302 301 301 301 302 302 303 304 304 304 304 304 303 304 304 304 305 306 306 306 308 313 314 314 314 313 315 316 316 317 317 316 316 314 314 316 316 315 314 315 320 320 313 310 307 304 304 305 305 305 305 304 303 303 302 303 304 303
303 303 303 303 303 303 303 301 298 299 300 301 301 301 302 302 301 301 301 301 300 301 302 302 303 302 303 303 302 302 301 301 301 301 302 302 303 304 304 303 303 303 302 303 304 303 304 305 307 308 310 313 313 314 314 313 316 318 318 319 319 320 318 314 314 316 316 315 312 316 327 325 313 308 306 306 304 304 305 304 304 304 302 303 302 303 303 302
303 303 303 303 303 303 303 301 298 299 301 301 301 301 302 301 301 301 301 302 302 302 302 303 303 303 304 303 302 302 301 301 301 301 302 303 303 303 303 303 303 303 302 303 303 304 305 305 307 310 311 312 312 313 315 314 317 319 321 321 322 325 320 313 313 316 317 315 312 317 329 325 313 308 307 306 305 305 304 304 304 303 302 302 302 302 302 302
303 303 303 303 302 303 302 301 298 300 301 301 301 302 302 302 302 302 302 302 302 302 302 302 302 303 304 303 302 301 301 301 301 301 302 302 303 303 303 303 303 303 303 303 304 305 306 307 310 313 312 312 313 316 318 318 319 319 324 326 324 324 320 314 312 314 317 316 314 320 327 322 314 310 307 306 306 306 305 305 304 303 303 302 302 302 302 302
302 302 303 302 302 302 302 301 299 300 301 301 301 301 301 301 301 301 302 302 302 302 302 302 302 303 304 303 302 302 301 301 301 301 302 302 303 303 303 303 303 303 304 304 305 306 307 309 311 313 313 314 317 320 320 321 322 319 323 327 323 321 320 317 314 311 314 317 317 321 324 320 315 311 308 307 307 307 307 306 304 304 303 303 303 303 303 304
302 302 302 302 302 302 302 301 299 300 301 300 301 301 301 301 301 301 301 302 302 301 301 302 301 302 304 303 302 302 301 300 301 301 302 303 302 303 304 304 304 305 305 305 305 307 309 311 312 313 315 317 319 320 321 324 324 321 322 324 320 321 321 319 318 313 312 317 318 320 320 316 314 311 308 308 308 307 308 307 306 306 306 304 304 304 304 305
302 302 302 302 302 302 302 301 300 299 300 300 300 300 300 301 301 301 301 302 302 302 301 301 301 303 304 303 302 301 300 300 301 301 302 303 302 302 303 304 304 305 307 307 307 309 311 311 312 315 317 318 320 320 320 322 324 323 322 323 321 321 321 319 318 313 312 317 318 319 319 313 310 310 309 308 308 309 309 308 307 307 307 307 306 306 305 306
302 302 302 302 302 303 303 301 300 299 300 300 300 300 299 300 301 301 300 301 302 302 302 301 301 303 303 302 301 299 300 300 301 302 302 303 303 302 301 303 304 306 308 309 310 310 311 313 315 318 318 319 318 317 319 322 322 322 321 322 321 320 319 317 314 310 311 317 316 319 320 313 311 310 309 308 307 309 310 308 307 307 308 308 307 307 307 309
302 302 302 302 302 303 303 302 301 299 299 299 299 298 298 300 302 302 301 300 300 300 301 302 300 301 301 301 299 299 301 302 302 302 302 302 303 303 302 302 305 307 308 310 311 310 311 315 316 315 315 315 312 311 317 321 320 320 321 320 320 319 317 313 312 309 309 316 315 315 317 313 312 311 309 309 307 308 309 307 306 307 308 309 309 308 308 311
302 302 302 302 302 303 304 303 300 298 298 298 299 298 299 300 301 302 302 300 299 297 299 300 299 299 300 299 298 297 300 303 303 302 302 301 302 303 302 304 307 309 308 309 311 311 311 314 313 310 308 307 308 310 316 320 320 320 320 320 320 319 317 312 312 310 309 315 315 313 316 315 313 312 310 307 307 308 308 307 308 308 309 309 308 308 308 308
302 302 302 302 302 303 303 302 299 298 297 297 298 298 298 298 298 300 301 302 300 297 298 299 298 299 299 297 297 296 300 303 303 303 302 302 303 303 303 306 309 310 308 309 312 312 313 313 310 307 305 305 308 314 318 320 320 320 319 320 320 318 317 314 313 312 311 316 316 313 317 316 313 313 311 307 307 308 308 308 309 310 311 310 309 309 308 307
302 302 302 302 301 302 302 300 298 297 297 297 297 298 298 299 299 299 301 302 301 299 299 300 299 300 300 299 297 298 301 302 303 303 301 302 304 302 305 309 310 310 311 312 312 312 313 312 307 305 306 310 314 317 319 319 318 319 319 320 319 317 320 320 316 313 313 315 316 315 317 316 314 313 311 309 308 308 307 307 308 309 311 312 310 308 307 307
302 301 302 302 301 301 301 300 299 297 297 297 297 299 300 300 300 300 301 301 301 300 300 300 299 300 300 299 297 299 303 301 301 303 301 303 304 302 304 307 309 311 310 312 312 312 312 308 305 306 309 314 318 318 318 318 317 317 318 319 319 318 320 319 316 315 314 315 314 316 321 320 316 316 315 311 308 308 308 307 307 307 308 309 307 306 306 306
301 301 302 301 300 301 301 300 299 297 298 298 298 300 300 301 300 300 300 300 300 301 300 299 299 300 299 298 298 300 302 301 301 301 301 302 303 303 304 303 307 311 311 312 312 311 310 306 306 311 314 317 318 317 318 318 317 316 316 317 319 319 319 317 316 318 320 321 313 312 326 327 317 316 318 315 311 312 311 309 309 308 307 307 306 306 306 306
301 301 301 301 299 300 302 301 299 298 298 299 299 300 301 301 300 299 300 300 300 301 301 300 301 301 299 299 299 300 303 303 300 301 301 301 302 303 305 304 306 309 309 310 310 309 308 307 310 313 315 317 316 315 316 316 318 318 314 314 318 319 318 317 319 321 323 323 312 308 321 326 318 317 318 316 315 316 315 313 313 312 309 308 307 308 308 307
302 301 300 300 299 300 302 300 298 299 299 299 299 300 300 301 300 299 300 301 301 301 301 301 301 301 300 299 298 301 304 302 301 301 300 300 301 303 306 306 306 306 303 306 311 309 306 309 313 313 316 317 317 315 313 314 318 317 311 313 318 318 318 318 320 321 318 317 313 310 314 320 321 317 314 315 316 316 316 316 315 314 312 310 308 309 309 308
301 300 299 299 299 300 300 299 299 300 299 298 299 300 300 300 300 299 301 301 300 301 301 301 301 300 299 299 299 301 301 300 303 303 299 300 302 304 306 306 306 306 304 307 313 306 303 308 310 311 316 315 313 310 308 312 317 313 310 314 316 315 317 319 319 318 315 317 320 315 311 318 322 314 310 313 316 317 317 316 316 315 314 312 309 309 308 307
301 299 297 298 299 299 299 299 300 300 299 298 299 300 300 300 299 299 301 301 300 301 301 301 301 300 300 301 301 301 299 300 302 301 300 301 302 304 305 305 306 307 305 307 309 305 302 303 302 306 312 311 308 307 308 313 315 311 309 312 313 312 314 316 317 317 316 319 322 314 308 315 319 314 312 314 315 317 317 316 316 315 315 313 310 309 308 307
300 298 297 298 299 299 299 300 300 299 298 299 300 300 299 299 299 300 301 301 301 301 300 301 301 299 299 302 302 301 301 300 299 300 302 302 303 303 302 303 306 307 306 306 305 304 303 301 300 302 306 306 306 307 309 312 312 310 311 312 313 313 312 313 313 315 318 320 316 310 306 310 314 314 315 315 314 314 314 314 314 314 314 314 312 310 308 306
299 298 298 297 298 299 299 300 299 298 298 299 299 298 299 299 300 301 301 301 302 301 300 300 299 298 298 300 300 300 301 300 299 301 303 302 303 303 302 305 308 309 309 308 307 306 305 304 302 302 302 305 309 309 309 311 310 311 315 316 316 315 314 315 312 313 319 318 312 306 304 307 312 313 313 312 311 310 311 313 311 310 310 309 308 306 303 303
299 298 298 297 298 299 299 299 298 298 298 298 298 298 300 301 301 300 299 301 302 300 299 299 298 298 298 299 299 298 300 301 299 299 300 300 302 300 300 303 305 309 312 310 310 310 307 306 303 303 303 304 310 313 311 311 311 313 317 317 318 317 316 317 315 314 315 312 307 305 306 309 313 312 310 310 309 308 309 309 308 306 305 304 303 301 300 300
299 298 297 297 298 298 298 298 298 298 298 296 297 300 301 302 302 299 297 301 300 296 296 297 297 296 297 299 299 297 299 299 299 299 298 299 301 299 300 300 300 307 312 309 311 311 311 309 305 306 307 303 307 314 315 314 314 316 316 315 317 316 315 317 313 310 310 308 305 304 305 310 312 309 307 306 305 303 302 302 303 302 302 302 300 299 299 298
299 298 297 297 297 297 297 298 298 298 297 296 299 302 303 303 300 297 297 298 297 294 294 295 295 296 297 298 297 297 300 300 298 300 300 300 301 301 302 301 299 305 308 308 309 309 313 313 306 305 306 303 305 308 310 313 312 311 309 310 312 311 311 316 313 310 311 309 307 306 305 309 310 308 305 303 301 299 299 299 299 300 300 300 300 299 299 299
299 298 297 297 297 297 298 298 298 298 296 298 302 303 303 301 298 297 298 297 296 295 294 293 295 298 298 296 295 296 299 301 298 299 300 300 300 299 299 299 298 300 304 308 308 306 310 311 305 303 302 301 303 303 303 310 312 309 306 308 309 306 306 308 306 306 308 309 309 308 308 308 308 306 302 300 299 299 299 300 300 301 301 301 300 300 299 299
299 298 298 297 297 297 298 298 298 297 296 300 306 302 299 298 296 297 298 296 295 295 295 296 297 300 300 298 297 296 297 299 298 299 299 297 298 298 296 296 297 296 300 306 308 307 310 310 305 304 302 299 301 301 300 305 312 310 307 308 306 302 303 305 305 302 303 307 308 307 309 309 307 305 301 299 301 300 301 301 302 303 302 301 302 301 300 300
299 298 298 297 297 297 297 298 298 297 298 304 307 300 294 293 293 294 295 294 294 293 295 299 298 297 299 300 298 297 298 299 298 300 300 297 299 298 295 296 297 295 296 300 304 306 309 310 305 305 306 301 298 301 302 303 307 310 308 306 302 301 302 305 307 304 303 306 306 305 307 308 308 308 303 301 302 302 301 302 302 302 302 303 302 301 300 299
299 298 298 298 297 296 296 298 297 297 301 307 305 297 293 293 291 292 293 293 294 294 295 299 298 295 297 299 298 296 297 300 299 298 299 299 300 298 295 296 296 296 294 295 303 305 306 310 309 304 305 304 300 305 309 305 302 306 306 302 302 305 306 305 305 306 305 304 304 303 303 305 307 308 306 304 304 304 302 302 302 303 303 303 302 301 300 299
300 300 301 299 297 297 297 297 296 298 304 308 303 297 294 293 292 291 291 292 293 294 296 297 296 295 296 297 297 295 295 298 298 297 298 299 299 297 295 295 296 297 295 295 301 304 304 310 312 306 305 306 305 306 309 306 302 303 304 301 300 304 305 304 303 304 305 304 303 303 304 306 307 307 306 305 305 305 304 302 303 304 303 303 302 301 301 299
299 302 302 298 297 298 296 295 298 303 305 302 298 295 294 294 293 292 291 291 292 294 296 295 294 296 296 295 295 295 294 296 296 297 298 298 299 298 294 294 295 297 296 296 299 300 304 310 311 309 309 309 306 301 301 302 302 304 306 304 302 301 301 302 300 299 302 304 303 302 305 307 306 303 303 303 301 302 303 303 304 304 303 302 301 300 299 298
299 304 303 296 296 296 296 299 300 298 298 295 294 295 294 295 294 292 291 291 292 293 293 294 294 295 295 296 295 294 294 295 294 296 297 298 299 298 294 292 294 295 297 299 299 300 304 310 311 311 310 307 301 295 293 295 297 300 303 302 302 301 301 305 303 296 297 302 302 301 305 307 303 299 299 300 298 298 299 302 304 303 302 301 299 299 298 297
302 306 301 296 297 296 299 305 295 289 295 296 294 294 295 296 294 292 292 291 293 294 292 293 294 293 294 295 295 294 295 295 294 295 297 297 297 297 293 292 292 292 296 300 300 298 301 307 307 305 302 299 295 291 290 291 292 295 297 296 298 301 303 306 306 301 298 298 297 298 303 305 300 296 297 298 297 297 296 299 302 302 301 299 298 298 297 297
306 305 297 295 297 296 301 307 298 292 296 293 291 292 293 294 294 292 292 292 293 293 293 294 294 293 293 293 294 294 295 296 295 295 296 296 295 294 292 292 292 293 296 300 300 299 302 305 304 302 299 297 293 290 290 289 291 296 297 295 296 298 300 302 302 302 300 299 299 300 303 305 300 295 296 296 295 296 296 296 299 301 299 298 298 298 297 297
305 301 297 296 296 297 303 307 304 298 295 292 293 294 292 292 293 293 293 294 294 293 295 295 293 293 293 291 293 294 294 297 297 294 294 296 295 293 292 292 292 294 297 300 301 301 304 306 306 307 308 305 302 298 298 297 296 298 297 294 294 294 296 298 299 300 302 300 300 302 305 304 299 294 295 296 296 298 298 296 297 299 299 298 298 297 296 296
302 300 300 298 294 296 301 302 303 302 298 297 297 295 293 293 293 293 293 293 292 292 294 294 292 292 292 291 293 294 293 296 298 296 295 295 295 293 292 292 292 294 296 295 295 298 302 303 304 309 312 310 309 307 305 303 300 298 296 293 294 293 295 300 301 302 303 299 297 302 305 304 300 296 297 298 298 299 299 297 296 296 298 298 298 297 296 296
304 305 305 302 297 298 296 292 297 302 300 300 299 295 295 297 294 292 292 292 291 290 292 293 291 293 294 294 296 297 294 293 296 297 295 295 295 293 292 293 293 294 295 294 292 294 299 298 298 307 311 307 305 302 297 298 301 301 298 295 295 293 293 298 301 303 304 299 298 302 303 302 302 299 299 300 299 300 300 298 297 296 297 297 296 297 297 296
304 307 305 303 302 302 299 294 296 300 299 300 300 296 296 298 296 293 293 292 291 290 291 292 293 296 297 296 298 299 296 295 297 297 295 295 295 293 291 292 293 294 296 295 291 294 303 301 295 301 305 297 295 294 290 293 299 301 300 298 296 293 292 297 303 303 301 301 303 303 299 300 303 302 301 301 300 300 300 299 297 296 296 296 296 296 297 297
301 303 299 298 301 304 304 300 298 299 299 299 298 296 297 298 296 296 295 292 291 292 293 294 295 297 297 297 298 299 298 298 299 297 295 296 295 295 295 293 291 293 295 294 291 295 305 303 293 296 301 292 289 290 289 292 295 294 296 298 297 294 294 299 303 300 300 304 305 300 297 299 301 301 301 301 300 300 300 297 296 295 295 295 295 296 297 296
299 301 295 294 299 303 301 298 296 300 302 301 300 297 299 301 298 296 294 293 293 292 293 297 297 297 298 298 298 300 301 301 301 298 297 298 296 296 297 296 293 292 293 296 294 293 301 301 293 295 300 293 289 289 289 291 295 296 296 295 294 295 295 298 299 296 298 303 299 294 294 296 297 298 299 299 297 297 296 294 294 295 295 296 296 297 297 296
301 303 300 298 299 298 297 296 297 303 303 300 302 299 298 301 299 296 294 294 297 295 293 297 299 297 296 297 298 301 300 299 302 300 297 299 299 297 297 298 295 293 294 297 296 295 299 299 291 294 299 295 291 290 289 290 293 299 299 294 292 295 294 295 296 294 295 299 297 293 293 296 297 298 296 295 293 292 293 294 295 295 296 297 298 297 297 297
298 298 298 305 304 298 298 297 296 303 304 301 303 301 299 301 299 297 296 293 295 296 293 295 297 294 292 294 298 300 296 294 298 297 295 297 299 297 297 296 294 295 298 296 296 299 301 297 290 293 300 299 292 290 293 293 292 297 301 297 294 296 297 296 295 295 296 299 298 296 297 300 301 298 295 293 291 292 294 295 296 296 297 297 298 298 298 298
296 294 296 306 308 298 297 297 296 301 305 303 302 300 299 300 296 296 299 294 290 292 291 292 294 294 294 295 297 296 294 293 294 293 292 294 294 293 294 293 293 296 299 297 296 296 297 298 296 295 299 299 292 292 297 296 296 300 303 300 296 295 296 296 294 294 295 298 299 299 301 303 301 297 296 295 292 293 295 296 297 298 297 297 297 298 299 299
Wind_Speed
10 10 10 10 10 10 10 9 8 9 8 8 8 8 9 9 9 9 9 8 7 5 3 2 2 3 5 6 5 4 4 2 7 14 13 8 11 12 12 12 14 15 12 9 7 3 0 1 1 1 5 3 1 2 3 1 1 3 5 7 8 8 8 9 11 8 9 14 14 13 12 11 10 7 6 7 9 10 11 11 10 12 12 14 16 16 12 8
10 10 10 10 10 10 10 10 8 8 9 9 9 9 9 10 10 10 10 10 9 7 5 3 3 2 4 5 5 5 4 1 3 11 11 10 12 13 12 12 13 15 12 8 8 6 1 1 2 0 4 2 0 2 2 0 1 3 3 6 7 4 4 5 10 9 10 16 16 14 13 12 12 10 6 7 12 11 11 10 10 13 12 14 15 12 10 9
11 11 11 10 10 10 10 10 9 9 9 9 9 9 10 10 11 11 11 11 10 8 6 5 4 3 3 5 4 5 3 1 0 7 11 12 13 14 12 11 13 14 11 8 7 6 2 1 1 1 2 2 1 2 3 1 2 1 2 7 3 3 5 3 4 8 10 18 19 15 13 12 11 8 6 10 13 9 9 8 8 12 11 12 11 10 11 9
11 11 11 11 11 10 10 10 9 9 9 9 8 8 9 10 10 11 11 10 10 7 6 6 4 4 3 3 4 4 1 2 1 5 11 13 13 13 10 10 12 13 10 7 6 5 3 1 0 0 2 3 2 2 4 1 1 2 1 3 2 3 4 4 3 10 13 17 17 15 14 13 9 6 8 13 11 6 5 3 6 11 12 11 10 10 10 9
12 12 11 11 11 11 10 10 9 9 9 8 7 7 8 8 9 10 11 10 9 6 4 4 4 4 2 3 4 3 2 3 2 7 11 13 12 11 9 9 12 13 9 6 5 4 2 0 1 1 1 3 4 4 3 2 1 3 2 2 3 3 3 3 6 15 14 14 16 15 13 11 9 7 6 8 6 5 4 3 7 10 10 10 10 10 10 10
12 12 12 11 11 11 11 10 9 9 8 7 6 7 7 7 7 8 11 10 8 4 3 3 4 4 2 2 3 2 2 1 4 8 11 12 12 10 8 8 11 12 8 4 4 2 1 1 3 3 2 2 4 5 3 1 2 3 3 4 5 2 5 5 8 14 15 15 14 12 11 11 12 10 8 9 7 6 5 5 8 8 8 10 10 10 10 9
13 12 12 12 12 11 11 10 9 8 7 7 6 6 6 6 6 7 10 10 7 3 2 3 4 4 2 2 1 2 1 2 5 9 11 12 11 8 7 7 10 10 5 3 4 1 0 3 5 3 3 3 2 4 5 4 3 5 6 6 8 8 8 8 9 12 13 15 12 11 12 11 12 9 8 11 9 7 7 8 8 8 9 10 9 9 10 10
13 13 12 12 12 11 11 10 9 7 7 7 6 6 6 6 5 6 9 8 6 2 0 2 4 4 3 1 0 1 2 3 7 10 11 12 9 7 6 7 9 9 7 7 4 1 1 3 4 3 3 4 2 5 6 7 8 7 7 6 8 10 11 11 12 14 15 14 13 14 13 10 11 10 9 9 7 7 8 9 8 8 9 8 9 8 9 9
13 13 13 13 12 12 11 10 8 6 6 7 6 6 7 7 6 4 6 7 4 3 1 1 3 4 3 3 0 1 2 3 7 10 12 11 8 6 6 6 9 9 7 8 5 1 1 2 2 2 4 4 3 5 2 1 5 5 9 9 11 12 12 13 13 14 15 10 10 14 13 9 8 7 8 7 5 6 7 7 7 7 7 6 7 7 8 9
14 13 13 13 12 12 12 10 6 5 6 6 6 7 8 8 6 2 3 5 4 3 2 1 2 3 3 3 0 1 3 5 7 9 11 10 7 5 5 6 9 8 5 6 6 5 2 1 1 2 3 5 3 2 3 1 8 11 15 14 15 15 11 12 14 12 12 8 6 13 13 6 4 3 4 4 3 6 6 6 6 5 6 5 6 7 7 7
14 14 13 13 12 12 12 9 4 4 5 5 6 7 7 7 5 1 2 4 4 4 3 2 3 4 5 3 1 1 4 5 6 8 10 10 6 3 4 5 7 7 4 4 6 6 4 2 0 2 1 5 6 7 6 9 16 17 20 18 15 16 12 11 12 9 8 7 6 12 13 6 6 4 4 5 4 5 6 5 5 5 5 4 5 5 5 6
15 15 13 13 12 12 12 8 3 3 4 4 5 5 5 5 4 3 2 3 3 3 3 3 5 5 5 5 3 3 5 5 5 9 9 8 5 2 3 4 5 6 4 3 4 4 4 2 1 1 1 7 8 9 8 12 16 16 17 18 14 13 12 9 6 4 6 6 0 5 9 4 6 5 4 4 4 5 5 5 5 4 4 4 3 2 4 4
15 15 14 13 13 12 12 7 2 3 3 2 2 3 4 5 6 6 4 4 4 3 2 2 2 1 1 3 3 3 6 5 5 10 10 6 4 3 2 3 4 3 3 2 2 3 4 2 1 0 2 5 6 7 9 8 9 11 11 13 12 9 8 7 4 5 7 5 3 3 4 3 4 4 3 2 5 6 5 4 4 4 3 4 3 2 3 3
16 15 14 14 13 13 11 6 1 3 4 2 2 3 5 8 9 10 7 6 6 4 4 3 1 1 1 2 1 3 7 5 6 12 12 7 3 3 2 3 3 1 2 2 2 3 4 2 0 2 2 4 8 11 12 5 3 9 11 8 8 7 4 5 4 3 5 2 4 4 3 5 5 6 4 2 3 5 5 4 4 3 2 3 2 2 3 3
16 16 15 15 14 13 11 5 1 4 6 4 4 5 6 8 9 9 8 8 8 5 3 3 2 2 1 2 1 5 8 6 8 13 12 8 3 1 2 2 2 1 1 1 2 3 4 2 1 4 5 7 13 13 11 7 4 6 7 6 5 5 5 4 5 3 2 4 3 4 2 5 5 7 5 3 2 3 4 4 4 3 2 2 2 3 2 3
17 16 15 15 13 13 12 5 2 6 8 7 8 8 8 9 6 4 3 4 5 6 3 1 1 0 1 2 1 5 6 6 9 11 10 6 3 2 2 1 0 1 1 1 1 3 4 2 1 4 7 10 12 11 9 9 5 1 2 6 6 6 7 4 3 5 3 4 3 5 2 4 4 7 6 3 3 3 4 4 4 4 2 3 3 2 2 3
17 16 16 15 13 13 11 5 4 8 10 9 11 12 13 15 12 7 0 3 0 4 5 5 2 1 2 3 4 5 7 9 9 9 8 5 3 2 1 0 1 1 2 2 2 1 3 2 1 3 5 6 8 9 10 9 8 4 3 6 7 8 9 5 3 3 5 2 3 5 4 4 4 7 6 4 4 3 4 4 4 4 3 3 3 3 3 3
17 16 15 14 13 12 10 5 5 9 11 11 11 11 13 17 16 13 7 1 3 2 2 6 3 2 2 4 5 7 11 11 8 8 7 3 3 4 3 1 1 1 4 3 2 1 1 1 2 5 5 5 7 7 8 10 11 10 9 9 9 9 9 7 4 2 4 5 5 5 5 4 5 6 5 4 4 5 4 3 3 4 4 4 3 4 4 5
17 16 15 14 13 11 10 5 6 10 12 11 9 7 7 10 12 13 14 9 2 1 1 4 4 0 3 5 7 11 11 7 5 8 7 2 2 3 4 3 0 2 4 4 2 1 2 4 4 7 8 6 4 1 2 7 12 14 14 12 11 9 7 6 4 2 2 6 6 3 4 4 5 5 4 5 5 5 4 3 3 4 4 5 5 5 4 4
16 16 15 14 12 10 9 5 6 11 13 10 6 3 2 2 3 5 9 8 4 2 2 2 1 1 3 3 8 12 8 2 3 8 8 4 2 1 3 3 1 2 2 3 5 1 2 6 5 4 5 3 2 3 0 11 17 17 15 13 12 10 7 4 4 2 1 3 5 3 4 4 5 5 4 5 5 5 5 5 4 5 5 5 5 4 2 3
17 16 15 13 11 9 8 5 5 11 12 10 7 2 1 1 1 1 2 2 1 1 2 1 3 3 4 2 8 12 5 1 2 7 10 7 1 1 2 1 5 5 2 0 5 2 3 6 4 3 3 2 2 4 4 16 18 15 14 13 11 9 7 4 3 3 1 1 4 4 4 3 3 4 5 5 6 6 6 6 6 7 6 5 4 4 3 3
17 16 14 12 10 8 6 3 3 9 11 10 7 2 2 1 1 2 1 1 2 1 2 2 2 2 3 3 4 8 3 1 4 8 12 8 2 1 1 1 5 7 3 2 6 6 6 6 3 5 3 1 1 3 10 17 15 12 12 12 10 8 9 6 4 4 1 0 4 6 5 2 1 3 4 6 5 5 5 6 6 6 6 5 5 4 4 5
17 15 14 11 8 5 4 3 3 7 10 11 7 4 3 3 5 5 0 1 2 0 1 1 1 3 2 2 2 5 2 4 5 9 13 8 2 2 1 4 7 7 4 4 7 8 7 4 4 4 2 3 7 7 13 14 8 8 9 10 11 10 9 5 2 5 5 4 6 8 5 2 3 3 4 5 5 4 4 6 5 5 5 5 4 4 5 7
16 15 13 10 5 3 4 5 3 6 9 10 7 4 4 5 6 3 0 0 1 0 1 1 1 3 3 2 5 5 1 3 3 7 13 7 1 1 1 4 7 8 6 7 10 9 8 4 3 2 3 5 12 12 12 11 6 5 4 7 13 12 8 7 6 7 7 7 5 6 4 3 5 6 6 5 4 4 4 6 7 6 7 5 4 5 7 8
16 14 12 8 3 2 3 4 3 7 9 9 7 5 5 7 5 1 1 1 2 1 0 0 1 2 3 3 8 5 2 2 3 5 8 6 2 1 1 2 3 7 8 11 13 11 8 4 2 2 2 6 12 9 4 6 8 5 4 3 12 14 12 12 11 8 6 3 3 1 4 4 5 7 8 7 6 8 7 7 9 8 8 8 7 7 8 8
15 13 10 5 1 2 2 1 4 8 8 6 6 5 5 7 4 2 0 1 3 2 3 3 0 5 6 4 7 4 2 3 3 4 6 6 4 1 2 1 2 6 7 8 8 5 5 5 1 5 6 7 10 7 2 1 8 7 2 1 9 14 14 13 10 7 4 3 2 0 2 2 4 5 7 8 9 11 11 11 12 9 8 8 8 8 7 6
15 13 9 4 1 3 1 1 6 7 3 4 6 6 5 7 3 2 2 1 4 3 4 4 2 6 7 6 6 3 1 3 1 4 8 7 4 1 3 3 2 4 1 1 4 2 5 6 4 5 6 7 8 6 3 3 5 6 1 3 10 13 12 10 7 4 3 3 3 1 3 2 2 3 3 5 8 10 12 13 13 12 11 9 8 7 6 6
14 12 7 3 2 2 0 3 7 4 1 5 8 6 6 5 3 1 2 1 3 2 2 3 3 6 7 7 6 2 2 3 1 5 8 7 5 2 5 7 5 7 4 1 5 3 4 4 4 2 4 6 3 1 4 2 5 4 3 5 8 10 8 6 6 5 2 2 4 4 6 3 3 3 3 3 6 9 11 12 13 13 13 11 8 7 6 5
13 10 6 2 2 2 2 4 5 2 2 7 8 7 7 5 2 2 0 1 1 2 1 2 4 5 7 6 6 5 2 2 3 4 7 6 7 5 6 6 11 15 11 8 8 3 2 2 2 2 3 4 2 3 4 2 6 6 6 8 8 8 7 5 5 5 2 3 3 5 6 3 3 3 4 3 4 6 7 8 10 11 12 11 8 8 7 5
11 9 7 3 1 3 3 4 3 3 5 8 9 8 7 3 1 1 2 0 1 2 1 3 3 4 8 6 7 8 6 5 3 4 4 4 6 7 4 1 6 13 11 13 10 2 1 0 1 2 3 1 1 2 3 1 9 11 10 10 9 7 6 4 3 3 4 3 2 4 6 3 2 2 3 3 1 1 1 2 4 6 8 8 6 5 4 3
9 9 8 3 2 2 2 3 4 7 8 9 9 7 4 1 0 2 3 1 0 2 1 3 3 3 6 6 6 8 7 6 6 6 6 4 5 7 3 1 3 8 9 9 7 4 4 4 1 2 1 2 0 6 6 5 8 7 8 11 9 5 4 4 3 1 4 3 2 3 5 3 4 1 2 2 2 1 1 1 2 1 3 3 1 1 1 2
8 9 8 3 2 2 2 5 7 9 9 9 7 3 2 0 2 2 1 2 2 2 1 2 3 4 5 3 5 7 5 4 6 6 5 4 5 5 3 2 1 5 7 4 4 7 7 5 3 2 0 2 1 6 6 3 2 4 10 11 7 6 5 4 3 2 2 1 2 2 3 3 5 1 1 1 2 1 1 1 2 2 1 1 1 1 1 2
7 8 8 5 3 4 7 9 9 9 8 6 3 1 1 1 2 1 2 2 2 2 1 1 3 3 4 2 5 6 3 3 4 4 3 2 5 3 2 5 4 1 4 2 4 6 4 3 5 5 1 3 4 4 5 3 3 6 9 5 4 7 5 4 3 1 1 1 1 2 1 2 4 1 1 0 1 1 1 2 2 2 2 2 2 2 1 1
5 6 7 6 6 7 9 9 9 9 6 3 0 0 2 3 1 1 1 1 1 1 1 1 3 2 2 3 3 4 3 5 5 4 3 2 4 4 3 8 8 3 3 2 3 3 3 4 6 6 2 4 5 2 1 3 4 2 1 1 1 3 1 3 3 1 2 2 2 1 1 2 2 1 1 1 1 2 1 1 2 1 1 2 1 1 1 1
5 6 7 7 6 7 8 7 7 6 3 1 1 2 3 2 1 1 1 1 1 1 1 0 1 0 3 3 2 3 2 4 4 5 6 4 3 4 3 5 8 5 1 1 2 1 3 5 5 3 2 4 4 3 3 2 4 2 1 2 1 2 1 3 2 1 2 1 2 2 3 2 1 2 1 0 0 0 0 1 2 2 1 0 1 2 3 3
4 5 7 7 5 4 5 5 5 3 1 1 2 3 2 0 1 0 1 2 1 2 1 1 1 2 2 1 2 3 3 2 3 2 4 4 2 3 3 3 5 4 3 1 2 1 3 4 3 2 1 3 4 3 2 0 2 2 1 1 2 2 1 4 3 2 1 2 2 1 3 2 2 2 2 2 2 2 2 3 3 2 1 1 2 3 3 4
3 2 5 8 5 2 3 3 1 1 1 1 3 3 1 0 1 1 2 2 1 2 2 1 2 2 1 1 2 5 4 2 3 2 2 1 2 3 3 3 2 2 3 2 2 1 3 6 2 2 3 3 1 0 2 4 1 2 3 4 3 0 0 1 2 2 0 2 2 1 3 3 2 1 2 4 5 4 4 4 3 2 2 3 3 3 3 3
3 2 4 7 6 2 2 2 1 2 2 3 4 3 1 1 1 1 2 2 1 2 1 1 2 2 0 1 2 4 4 2 2 3 2 1 2 2 3 3 1 1 3 2 1 1 2 6 4 2 1 1 1 2 2 7 7 3 4 4 2 1 1 1 1 2 2 1 1 0 2 3 5 3 1 4 7 7 6 5 4 5 5 4 4 3 3 3
3 1 2 5 4 3 1 0 1 2 2 2 2 2 1 0 0 0 1 2 1 2 1 1 1 1 1 1 1 2 3 2 2 1 1 2 2 1 1 2 1 1 2 2 1 1 1 3 3 1 3 2 1 2 1 4 6 3 4 2 0 2 1 1 1 1 1 2 1 0 1 2 4 2 1 1 4 7 8 6 6 7 5 4 4 4 3 2
2 1 0 3 3 3 2 3 3 3 3 2 1 2 1 1 2 1 1 1 1 1 1 1 1 1 2 1 1 1 3 3 2 1 2 2 1 2 2 1 2 2 2 3 1 1 2 2 5 3 2 2 1 4 2 2 2 1 1 1 2 2 1 1 2 2 1 1 1 1 1 0 1 1 0 1 1 3 5 5 5 5 5 5 4 3 3 2
1 0 0 3 2 2 2 5 5 3 2 2 2 2 1 2 3 2 1 2 0 1 1 1 1 1 1 1 1 1 1 3 2 1 2 1 1 2 2 1 2 4 3 2 1 1 2 2 6 6 2 1 3 3 2 3 3 2 1 1 1 1 1 1 2 1 1 1 0 1 2 1 2 1 1 1 1 2 3 3 4 5 5 5 3 2 2 2
1 0 1 5 3 2 2 4 2 2 2 2 1 1 1 1 3 2 2 2 1 0 1 1 2 2 1 1 1 0 1 2 2 1 1 2 2 2 1 1 1 3 2 0 1 2 1 3 6 5 2 2 2 1 0 2 3 2 1 1 0 0 0 1 1 2 1 1 0 1 2 1 2 1 2 2 2 2 2 3 4 5 5 4 3 2 2 1
1 1 2 6 2 3 2 3 1 2 2 0 1 1 1 0 2 1 1 1 1 1 1 1 0 1 2 1 1 0 0 1 2 1 1 1 1 2 1 1 1 2 1 1 1 1 1 2 4 3 1 0 1 1 1 1 2 2 0 1 0 0 2 2 1 1 2 2 1 1 2 0 2 1 1 2 2 2 3 3 4 3 3 3 3 2 2 2
1 1 2 5 3 1 1 1 2 1 1 1 0 2 1 1 1 0 1 1 1 1 2 2 0 0 1 0 1 1 1 0 1 1 1 1 1 2 2 2 2 2 1 1 1 0 0 0 2 5 5 3 2 2 3 2 2 2 1 1 0 2 3 3 2 1 1 2 1 2 3 0 2 1 2 1 1 3 3 3 3 2 2 2 2 2 2 1
1 1 1 3 4 3 1 1 2 4 3 1 2 2 1 1 1 1 0 1 1 1 2 2 0 1 1 1 1 2 1 1 1 0 0 1 1 2 2 3 3 2 1 2 4 2 1 1 1 4 6 4 3 2 2 2 2 1 1 1 2 2 3 1 2 1 3 2 1 3 3 1 1 1 2 2 2 4 4 3 2 2 2 2 1 2 2 2
1 0 0 1 4 4 2 1 1 4 4 3 2 1 1 2 2 0 1 1 2 1 2 2 0 1 1 0 1 3 3 2 2 2 2 1 1 1 2 3 2 1 1 2 4 1 3 3 3 2 2 1 1 1 2 2 1 2 2 3 3 2 1 0 1 2 2 3 3 6 3 4 4 2 4 5 5 6 5 4 4 4 3 2 2 2 2 3
1 1 1 0 1 2 2 1 2 3 2 2 1 2 2 2 2 1 0 1 2 1 1 2 1 1 2 2 2 2 2 2 2 3 2 1 1 1 0 1 1 2 2 2 3 1 3 3 2 3 3 2 2 1 2 3 0 2 2 4 5 3 3 4 4 3 4 4 4 4 3 4 7 2 4 6 7 6 6 6 5 4 3 3 3 3 4 4
0 1 1 0 0 1 1 1 2 3 3 1 1 2 3 3 2 2 1 1 0 2 1 1 0 1 1 2 2 3 1 2 3 2 1 1 1 1 1 2 1 2 1 1 2 1 3 3 0 1 2 1 1 1 2 2 1 0 1 3 5 5 7 8 6 3 5 5 4 2 4 7 8 3 2 5 6 6 5 3 3 2 2 4 4 4 6 6
1 2 1 1 0 1 0 1 3 4 4 2 1 2 3 4 3 1 1 1 0 2 2 1 3 3 2 2 2 2 3 2 2 1 2 2 1 0 1 2 1 1 1 2 3 1 1 3 1 1 1 1 1 2 2 1 0 2 4 4 5 7 8 7 3 1 3 5 3 1 3 10 10 8 6 3 1 2 0 3 2 3 4 5 6 7 7 7
0 1 1 1 2 2 0 0 2 3 2 1 0 2 2 4 4 2 1 1 1 1 1 1 4 4 2 2 2 2 2 2 2 2 4 4 1 1 1 0 1 2 2 2 2 3 1 2 1 0 1 1 1 2 2 2 2 3 4 4 5 5 5 6 4 1 2 6 4 1 5 10 8 5 4 1 2 1 2 4 5 5 5 6 7 7 7 6
1 1 2 3 3 0 0 1 1 2 1 1 1 2 3 4 4 4 3 1 1 1 1 1 5 4 1 1 1 1 1 2 2 3 4 3 1 1 1 0 2 2 2 2 2 3 2 2 1 0 1 1 2 2 2 3 3 4 7 7 8 7 4 5 5 6 7 5 3 3 5 8 3 2 1 1 3 5 7 7 6 5 6 6 7 7 7 7
1 2 1 2 2 1 0 1 1 0 1 0 1 2 2 2 3 3 2 1 2 2 1 2 5 3 1 3 3 2 1 1 3 4 2 3 4 4 3 3 3 1 2 3 1 3 2 3 3 1 2 2 1 2 1 2 2 4 6 8 13 12 7 4 5 9 12 8 5 5 6 3 2 2 2 4 5 7 8 8 7 6 6 7 7 7 7 6
Wind_Direction
357 356 356 355 356 355 354 349 349 349 343 338 329 332 339 338 335 331 326 318 319 323 302 297 314 337 360 2 1 337 331 6 23 36 44 18 352 345 345 345 343 349 349 352 10 23 48 61 35 136 150 142 21 159 157 62 124 191 194 200 203 195 187 170 173 168 134 145 147 158 167 141 133 127 125 111 93 105 96 82 81 75 80 90 102 114 121 125
354 355 354 354 355 355 351 345 347 347 342 338 331 335 337 334 332 326 318 308 296 291 283 271 275 300 344 360 3 353 356 308 33 41 27 1 356 349 346 346 346 352 353 1 14 9 339 32 7 193 158 146 130 170 169 270 228 196 188 199 205 178 146 151 170 159 136 149 147 153 160 140 136 136 145 141 125 125 105 94 101 96 99 102 103 111 113 112
353 355 354 354 352 351 350 346 348 345 340 338 334 336 337 334 332 329 324 319 305 283 267 256 257 265 314 357 351 350 13 226 16 23 1 358 357 347 345 344 346 352 356 1 359 354 344 342 332 227 154 135 131 181 167 173 233 190 210 197 181 81 92 64 144 146 139 145 142 146 147 129 128 134 154 141 127 125 112 111 125 121 126 121 111 111 111 107
354 355 354 353 350 349 349 347 348 346 341 337 335 337 339 337 336 334 331 330 325 302 266 250 243 249 280 346 343 354 18 201 84 356 348 359 355 345 346 342 344 349 353 354 348 349 352 351 269 47 145 138 104 176 157 95 236 139 234 197 52 30 93 44 102 123 129 138 137 140 132 119 121 131 149 140 127 120 101 94 144 139 136 128 120 115 112 110
354 353 352 350 348 348 347 347 349 346 345 344 348 347 345 346 344 339 335 335 334 323 272 247 231 236 258 329 341 13 231 216 41 353 350 2 357 348 347 343 344 349 353 351 344 337 336 167 164 97 104 135 140 165 131 35 356 95 49 30 10 321 94 69 124 120 122 128 127 132 128 124 119 99 114 131 128 127 90 74 133 133 130 126 125 120 109 103
353 352 349 347 346 346 346 345 346 347 353 2 10 5 358 356 350 340 338 338 336 328 265 239 225 226 236 312 348 28 266 248 27 349 353 2 356 351 347 345 349 350 348 353 349 327 295 197 178 161 114 114 148 150 106 26 281 110 76 42 39 44 100 105 118 120 125 124 123 125 117 120 116 87 61 66 73 97 91 99 118 112 114 120 121 120 109 97
351 350 348 347 345 344 343 343 345 353 6 22 26 11 0 347 339 339 339 342 343 329 250 221 209 206 219 289 31 59 5 49 7 342 353 357 353 351 348 350 356 355 357 18 0 3 187 185 170 167 127 115 125 116 106 82 50 98 100 66 63 72 87 97 101 110 112 108 109 108 102 103 106 96 66 65 70 87 96 99 104 103 108 113 112 111 106 101
348 349 346 346 345 342 342 341 345 1 17 30 29 8 353 338 328 336 343 353 2 8 103 187 190 191 199 218 139 85 67 27 340 340 349 350 353 357 359 356 3 11 35 38 15 23 210 177 160 190 140 119 125 128 128 91 59 72 104 95 78 76 81 88 89 94 95 97 100 91 84 80 90 95 73 64 71 83 95 98 100 103 103 107 108 106 107 108
347 347 344 344 344 341 340 338 345 12 27 27 19 357 343 340 334 333 347 4 26 41 30 205 180 177 161 118 115 267 52 3 337 347 347 348 357 0 5 4 11 21 40 38 29 60 240 184 150 217 130 98 120 130 168 107 75 81 107 107 96 90 88 92 88 93 101 102 100 92 87 89 87 82 72 59 68 89 94 97 101 104 102 102 106 110 113 112
347 344 343 343 341 339 338 336 348 23 34 25 4 348 341 346 348 335 0 19 33 32 1 287 167 156 139 116 232 273 35 7 354 359 351 351 356 356 10 13 16 21 33 36 36 48 33 141 138 268 110 94 101 90 329 105 116 110 105 95 94 94 87 94 94 98 104 79 81 107 106 97 50 32 91 87 88 107 104 100 103 105 102 102 105 111 115 121
345 343 343 343 340 339 336 337 357 35 43 23 351 343 347 354 0 31 61 37 26 22 22 58 117 109 104 99 42 32 26 2 356 2 355 348 343 347 17 15 13 14 21 37 43 51 43 53 90 286 125 120 98 70 68 112 121 118 106 92 92 96 84 87 97 101 101 71 71 107 106 78 37 46 101 111 127 128 116 111 109 108 108 106 102 110 126 140
343 343 342 342 341 336 334 337 354 46 54 19 349 348 2 18 38 83 73 21 356 359 21 98 114 93 93 83 59 42 15 356 350 358 354 344 332 313 352 3 2 5 9 31 45 47 43 37 251 302 106 138 118 89 106 127 123 119 108 101 103 100 80 58 71 98 107 106 99 102 106 66 37 78 104 106 136 130 116 119 114 109 112 111 108 120 140 144
343 344 343 340 339 334 332 333 341 72 78 31 358 13 41 63 73 75 52 16 10 17 44 136 130 33 68 83 70 28 3 357 355 354 353 348 325 284 292 338 339 358 14 30 49 28 33 16 278 49 89 127 118 106 128 141 125 113 107 110 118 108 72 25 44 117 108 101 303 300 143 114 73 123 131 109 137 132 123 130 124 114 119 125 136 158 153 155
344 344 343 338 338 333 329 327 317 109 112 112 81 79 83 89 85 77 62 47 49 58 81 93 69 51 48 88 138 351 355 1 2 355 353 355 338 263 269 321 312 310 2 23 43 6 21 20 239 126 58 92 115 116 119 126 131 120 113 117 132 128 89 16 24 113 114 92 321 304 184 134 129 152 147 142 149 144 139 136 133 129 139 142 155 182 168 175
344 342 342 338 337 333 328 321 188 136 132 128 106 106 104 98 90 82 78 71 60 54 83 73 57 113 93 98 174 327 349 3 5 357 352 354 358 273 278 303 296 292 358 39 34 8 29 29 211 126 97 116 131 129 122 117 122 131 132 139 140 130 121 61 18 358 107 128 358 324 186 121 133 157 152 161 162 155 152 144 146 144 166 172 176 200 182 183
343 341 339 338 337 333 328 316 194 150 138 125 107 106 97 79 63 59 87 91 55 36 52 70 16 343 67 61 346 339 355 351 352 353 350 352 355 322 307 335 58 84 94 70 33 25 47 49 14 99 123 142 143 134 127 128 130 175 155 140 133 128 133 108 34 353 9 125 42 357 148 125 126 147 144 164 164 162 165 162 160 154 189 204 193 207 205 198
343 340 339 338 337 334 327 311 197 163 146 129 111 100 84 68 49 31 11 205 106 20 41 47 359 237 68 27 341 347 345 328 338 352 352 3 14 351 314 35 49 64 130 95 67 50 37 47 119 119 133 152 154 143 139 150 162 173 140 126 130 133 137 130 102 16 359 98 72 36 89 107 118 139 145 168 172 177 184 182 172 169 200 208 204 217 217 217
343 340 339 338 336 335 325 303 200 176 158 140 122 102 85 73 61 51 50 126 225 270 33 34 10 194 63 13 339 327 322 316 336 358 357 15 41 39 52 96 124 150 151 126 71 66 58 62 160 140 141 159 166 164 161 169 170 160 146 131 131 133 131 127 120 19 17 88 92 72 95 109 125 142 148 163 185 195 188 193 190 186 205 207 211 220 219 224
344 340 339 338 335 335 327 301 207 187 173 157 135 113 94 81 74 60 50 53 61 339 22 8 5 354 333 338 322 319 317 309 346 7 4 14 26 42 51 49 122 166 156 144 97 54 125 137 151 145 153 164 154 184 164 140 140 140 138 130 127 121 109 109 99 8 33 93 83 71 106 132 144 150 158 165 195 206 185 187 202 198 205 208 211 214 216 227
343 341 339 337 336 336 330 302 215 194 186 178 161 136 124 109 91 62 43 43 56 41 13 344 328 309 319 313 325 337 342 308 5 15 14 6 325 292 24 15 170 136 106 138 114 59 205 142 138 137 140 118 62 291 40 106 118 126 128 123 120 115 101 93 92 53 326 76 66 66 100 132 147 150 163 168 188 207 191 186 201 207 206 210 213 212 223 243
343 342 339 338 338 336 334 308 213 195 194 190 183 173 159 216 313 70 58 48 94 274 328 307 231 279 308 289 343 353 352 228 17 24 18 11 328 221 355 341 161 121 50 68 106 124 192 136 101 20 17 17 344 260 146 113 121 124 124 128 124 121 113 95 86 74 304 85 94 112 113 108 144 157 165 172 189 202 196 194 201 205 203 205 209 208 223 242
344 342 340 340 338 340 348 343 186 188 192 186 178 143 99 175 191 151 143 98 116 228 264 261 237 293 292 219 356 350 302 306 25 26 13 3 2 17 8 141 133 114 100 153 129 134 141 115 48 357 336 248 205 203 128 116 123 122 127 137 130 128 120 92 50 57 20 98 131 147 126 92 194 185 181 189 204 209 198 207 215 209 204 205 206 206 221 238
343 343 342 340 340 358 33 57 128 169 180 180 171 127 106 134 155 155 144 66 92 121 247 306 328 351 2 134 354 328 344 21 12 12 2 355 33 15 42 102 102 108 110 136 142 142 129 94 5 336 289 150 126 129 118 112 111 115 134 144 140 151 142 117 74 79 68 69 130 156 135 122 204 202 209 206 211 225 213 221 232 229 227 224 212 209 218 233
343 344 343 341 352 44 77 77 119 155 165 176 167 135 145 146 140 138 130 280 35 211 215 356 290 338 8 35 340 321 56 32 351 357 355 359 85 335 23 78 86 93 88 94 105 104 95 60 339 303 244 147 124 121 117 116 102 74 89 136 147 156 134 116 136 120 93 76 104 158 158 161 181 189 208 201 198 228 225 221 227 224 228 230 221 222 222 226
343 345 344 347 4 100 92 69 126 151 153 161 155 147 157 150 144 103 148 219 1 8 347 293 199 9 351 334 354 335 200 43 11 351 350 7 30 233 100 40 52 93 100 93 93 92 73 14 300 135 136 126 121 118 106 123 127 97 20 109 148 145 122 123 144 149 146 117 82 179 205 174 164 190 203 187 194 221 220 222 229 221 214 216 220 227 225 223
344 345 346 355 24 139 109 63 142 145 143 147 158 164 161 163 159 42 187 224 24 2 345 354 310 8 352 341 355 317 198 53 13 6 10 18 7 254 118 46 49 96 102 90 93 97 39 360 15 114 112 108 110 108 1 30 136 131 35 64 139 131 124 136 153 163 166 146 104 219 250 179 152 181 193 190 203 217 218 226 235 230 220 215 219 225 224 224
344 344 345 2 105 145 134 178 154 151 146 162 171 165 168 185 172 43 254 257 38 355 347 9 338 350 351 343 336 298 88 8 316 45 22 10 358 287 89 63 77 81 68 124 104 63 359 7 48 92 111 111 113 108 346 313 131 125 137 161 136 126 130 143 146 141 112 108 130 63 348 300 186 145 163 193 207 216 219 225 228 229 230 226 224 226 222 228
347 348 351 26 118 141 105 144 156 166 174 167 165 155 164 174 159 216 246 15 23 340 14 16 332 349 343 332 348 38 81 318 351 37 356 6 20 17 78 70 87 72 16 198 123 80 353 12 34 46 103 104 105 28 337 354 87 99 148 138 123 116 119 127 121 111 101 159 152 47 0 282 212 113 121 188 215 227 227 225 225 224 227 227 228 232 229 234
354 0 7 32 103 102 113 133 152 172 152 163 157 148 153 135 136 204 74 52 333 349 55 354 346 350 332 330 18 37 16 349 39 356 330 17 30 40 79 76 84 74 48 60 92 86 19 10 333 342 60 73 36 331 302 336 84 116 132 109 103 97 83 86 110 118 143 195 154 34 357 277 213 142 147 181 222 236 228 224 228 225 223 221 218 227 229 228
1 11 5 349 116 111 125 116 122 141 141 155 149 141 147 129 172 167 47 6 307 9 346 352 350 321 332 1 31 19 18 27 9 333 356 39 27 46 73 317 80 81 68 68 77 101 107 189 272 38 45 343 37 49 322 41 118 138 140 113 103 93 82 79 69 109 169 181 115 18 351 313 246 161 156 177 189 241 200 191 222 224 225 220 212 225 236 236
5 9 1 346 154 147 152 109 117 134 134 142 140 136 146 146 241 102 62 242 302 11 350 14 357 330 356 24 28 6 17 25 357 1 28 33 25 39 45 283 88 95 89 75 79 92 68 56 24 44 42 288 115 82 51 76 116 142 150 130 111 99 113 115 79 183 199 174 77 0 338 292 245 195 110 157 146 141 220 104 82 157 214 213 203 270 282 287
11 6 6 26 145 149 137 132 132 135 139 142 136 132 185 262 34 79 340 305 5 9 14 6 346 355 350 10 29 1 1 23 12 28 29 23 47 38 21 27 71 117 96 75 90 71 40 40 12 309 158 344 46 106 89 88 142 164 152 144 130 130 144 142 137 207 221 119 52 352 339 269 249 255 74 174 167 161 250 347 19 27 34 41 33 345 312 285
22 11 18 50 109 124 123 132 136 140 146 146 132 97 152 76 58 66 294 327 24 4 9 327 319 334 318 345 31 359 2 24 355 28 33 357 59 75 78 40 357 156 101 87 110 77 46 60 10 351 76 1 1 122 132 140 175 161 149 155 146 136 149 156 146 245 260 119 50 345 327 245 249 257 74 222 75 36 329 316 310 317 335 342 352 329 297 258
40 27 39 67 96 118 125 131 139 147 152 143 158 67 71 66 87 167 316 343 17 319 327 313 301 319 9 33 16 331 32 54 360 8 31 357 40 55 59 35 15 24 89 85 91 64 91 98 21 5 16 347 6 47 64 98 115 114 75 296 134 110 151 164 155 187 159 117 86 138 230 244 236 115 79 337 16 351 312 311 289 278 314 320 341 17 70 98
76 50 58 76 93 113 126 137 145 152 156 111 58 63 72 81 215 186 21 324 266 292 270 202 293 22 65 45 19 340 13 55 18 11 34 36 37 26 10 10 8 7 24 98 98 59 94 81 17 352 322 338 23 12 326 66 104 88 312 286 43 17 34 111 92 73 100 107 136 184 248 279 254 149 134 230 161 175 124 152 188 155 96 47 90 78 69 75
109 55 57 66 82 116 129 141 151 149 170 213 72 52 57 110 265 105 33 327 306 328 284 188 2 36 65 36 32 22 2 23 15 17 41 40 44 32 4 340 359 360 342 77 116 145 115 86 355 325 75 37 41 28 348 19 142 145 182 146 63 3 99 111 100 67 320 231 152 179 259 268 253 193 151 163 169 151 139 156 160 137 124 129 93 76 72 73
132 67 57 49 53 124 149 153 148 94 83 83 81 67 50 36 5 1 7 345 320 327 291 175 20 1 44 49 12 360 350 6 3 11 44 27 50 39 359 333 356 357 346 33 72 10 116 109 42 354 87 81 19 321 61 42 355 195 138 124 126 221 11 99 111 95 321 234 144 184 263 278 268 206 133 165 184 177 166 165 160 162 184 157 111 88 88 80
151 130 68 40 39 92 158 170 40 54 72 62 78 97 171 42 9 332 354 347 274 306 316 97 32 347 307 118 52 349 329 345 11 18 44 25 47 39 340 340 340 338 343 355 74 354 104 102 71 356 35 61 284 230 104 48 24 40 104 123 166 212 137 108 116 132 157 221 242 270 292 274 231 208 130 176 190 183 170 170 181 186 184 158 129 119 114 100
167 210 41 24 34 77 120 158 49 57 74 70 94 126 170 158 40 347 348 330 289 293 346 44 14 13 52 59 87 11 348 30 37 14 46 24 31 46 358 342 287 297 318 277 141 78 342 90 107 343 325 297 344 3 106 68 41 58 101 126 301 354 24 75 46 306 210 184 228 333 308 248 213 199 28 161 187 178 170 177 191 186 173 155 145 140 132 113
143 291 11 13 45 86 62 51 59 51 63 74 132 142 140 165 146 121 292 286 300 324 4 42 2 47 78 33 23 38 34 51 58 21 34 31 48 66 50 358 298 318 298 257 163 77 333 62 134 135 334 243 108 29 3 39 48 109 139 132 100 63 2 108 81 5 323 185 176 228 226 207 100 125 307 346 313 190 180 184 187 175 161 158 157 144 131 121
110 321 139 346 357 123 50 49 51 35 72 92 104 124 159 169 146 138 210 227 253 348 349 51 59 61 96 73 30 78 74 59 56 50 54 55 49 58 61 28 329 319 304 257 90 48 348 63 123 131 100 96 80 40 345 338 338 322 355 22 72 82 173 179 139 82 356 319 187 253 272 347 68 111 249 294 298 245 220 203 182 170 170 167 157 146 148 147
97 154 4 336 302 193 55 55 47 6 92 97 51 99 152 152 136 137 179 192 213 303 336 58 81 68 63 48 32 154 141 61 40 35 54 34 15 33 67 41 312 295 301 35 37 353 333 83 96 102 78 53 55 56 349 312 302 296 355 5 3 19 270 292 177 149 125 32 60 270 292 345 94 156 249 264 281 261 216 205 195 178 172 164 148 156 183 197
97 156 15 6 56 149 62 71 90 17 57 347 312 56 22 113 134 139 186 188 193 178 113 62 132 56 46 59 84 167 197 48 38 19 64 93 38 43 35 343 280 270 297 110 99 328 309 81 86 91 93 151 173 175 195 293 279 248 154 81 269 337 22 24 41 114 159 181 166 208 252 253 103 131 247 246 272 260 210 210 213 184 160 157 162 173 179 188
78 151 12 20 61 156 316 106 130 87 95 255 113 98 51 270 149 105 221 224 220 166 126 104 207 90 74 112 134 118 297 5 62 359 28 115 75 50 25 338 319 306 330 17 26 332 90 127 137 128 130 156 187 199 199 196 230 249 95 83 40 97 100 107 113 113 222 202 167 244 243 228 92 120 256 228 224 237 213 203 210 194 172 167 171 179 181 186
90 139 292 16 46 63 59 146 133 133 148 153 115 119 126 125 116 328 258 190 221 191 116 106 39 90 114 157 101 81 9 16 107 319 40 99 69 42 20 348 332 318 337 343 326 309 116 84 178 146 144 161 177 194 223 188 170 178 109 169 190 139 143 161 119 182 228 169 149 232 239 330 78 174 221 217 214 231 215 181 189 217 212 195 182 174 183 194
122 112 262 7 43 61 70 9 83 123 146 153 124 140 155 117 114 321 17 150 185 178 75 88 149 184 136 122 90 68 24 23 88 113 111 98 90 54 3 351 359 352 252 336 351 6 117 77 18 34 95 95 93 85 337 347 141 158 169 180 180 175 224 207 128 203 192 135 195 233 250 310 290 203 194 213 211 218 218 192 192 209 208 210 217 209 212 214
148 137 121 139 55 65 80 54 56 100 143 179 148 146 157 130 119 145 241 270 181 169 65 74 146 198 161 153 126 87 35 13 62 92 95 64 85 109 202 207 43 350 263 279 344 6 135 108 34 37 46 13 3 28 332 326 270 166 162 167 177 181 182 193 208 198 136 147 242 241 179 257 272 223 191 217 212 214 219 204 193 189 184 194 204 214 225 224
22 136 104 80 172 90 85 95 96 88 91 95 72 117 140 148 154 164 162 62 130 234 224 108 161 230 166 165 144 115 105 35 49 78 145 130 145 150 132 152 118 346 303 316 340 335 115 103 176 90 63 302 294 339 299 295 39 67 219 193 183 178 183 199 215 192 173 205 277 43 153 233 260 262 212 217 217 223 215 182 163 149 165 189 195 207 216 214
39 110 84 358 56 141 351 94 116 106 88 73 97 153 168 172 170 160 118 99 145 257 253 189 187 185 173 190 155 134 170 147 74 223 199 128 107 207 114 110 90 9 322 28 21 336 115 100 134 164 101 270 296 332 314 304 298 245 232 209 194 194 204 219 251 270 233 260 302 49 258 265 262 252 244 223 191 248 154 115 151 180 187 191 195 205 209 205
141 150 145 70 83 109 293 90 116 106 74 24 132 166 181 178 168 140 129 178 200 191 258 234 166 149 162 216 186 150 179 172 131 175 171 148 152 207 166 110 99 79 21 30 13 310 305 90 80 213 220 283 348 1 355 359 329 266 249 217 191 192 217 243 267 252 250 272 261 191 280 279 259 233 243 226 115 171 187 176 190 196 192 192 197 205 208 204
64 83 143 116 97 73 318 90 97 104 122 260 204 167 185 193 178 145 122 32 347 126 239 176 134 126 124 191 136 77 193 177 126 134 156 152 139 154 136 161 175 148 72 54 345 333 26 105 115 219 245 270 11 12 354 7 352 277 265 234 193 180 196 214 213 197 196 210 178 149 255 267 242 128 184 214 175 195 201 192 193 199 193 194 200 204 206 208
126 67 107 111 88 313 261 106 72 119 169 254 109 148 190 174 157 142 116 104 74 51 354 159 134 123 94 98 71 11 4 99 89 81 93 91 83 88 87 86 97 103 130 127 38 2 83 133 142 155 238 245 1 7 358 357 314 264 263 225 191 189 199 195 208 216 207 187 158 190 228 245 92 115 195 196 188 204 208 195 191 196 192 197 207 206 208 212